owner,sensor,date,latitude,longitude,vertical_datum,sea_water_practical_salinity,qcFlag 
DISL,ioos:station:DISL:KATA:1,2014-02-01T00:00:00Z,30.2583,-88.2131,4.098,27.85,1111122 
DISL,ioos:station:DISL:KATA:1,2014-02-01T00:30:00Z,30.2583,-88.2131,4.133,27.81,1111122 
DISL,ioos:station:DISL:KATA:1,2014-02-01T01:00:00Z,30.2583,-88.2131,4.163,27.76,1111122 
DISL,ioos:station:DISL:KATA:1,2014-02-01T01:30:00Z,30.2583,-88.2131,4.201,27.79,1111122 
DISL,ioos:station:DISL:KATA:1,2014-02-01T02:00:00Z,30.2583,-88.2131,4.228,27.81,1111122 
DISL,ioos:station:DISL:KATA:1,2014-02-01T02:30:00Z,30.2583,-88.2131,4.26,27.94,1111122 
DISL,ioos:station:DISL:KATA:1,2014-02-01T03:00:00Z,30.2583,-88.2131,4.279,27.97,1111122 
DISL,ioos:station:DISL:KATA:1,2014-02-01T03:30:00Z,30.2583,-88.2131,4.304,28.06,1111122 
DISL,ioos:station:DISL:KATA:1,2014-02-01T04:00:00Z,30.2583,-88.2131,4.304,28.16,1111122 
DISL,ioos:station:DISL:KATA:1,2014-02-01T04:30:00Z,30.2583,-88.2131,4.298,28.22,1111122 
DISL,ioos:station:DISL:KATA:1,2014-02-01T05:00:00Z,30.2583,-88.2131,4.286,28.25,1111122 
DISL,ioos:station:DISL:KATA:1,2014-02-01T05:30:00Z,30.2583,-88.2131,4.254,28.25,1111122 
DISL,ioos:station:DISL:KATA:1,2014-02-01T06:00:00Z,30.2583,-88.2131,4.229,28.27,1111122 
DISL,ioos:station:DISL:KATA:1,2014-02-01T06:30:00Z,30.2583,-88.2131,4.213,28.32,1111122 
DISL,ioos:station:DISL:KATA:1,2014-02-01T07:00:00Z,30.2583,-88.2131,4.197,28.3,1111122 
DISL,ioos:station:DISL:KATA:1,2014-02-01T07:30:00Z,30.2583,-88.2131,4.188,28.28,1111122 
DISL,ioos:station:DISL:KATA:1,2014-02-01T08:00:00Z,30.2583,-88.2131,4.165,28.22,1111122 
DISL,ioos:station:DISL:KATA:1,2014-02-01T08:30:00Z,30.2583,-88.2131,4.144,28.13,1111122 
DISL,ioos:station:DISL:KATA:1,2014-02-01T09:00:00Z,30.2583,-88.2131,4.101,28.16,1111122 
DISL,ioos:station:DISL:KATA:1,2014-02-01T09:30:00Z,30.2583,-88.2131,4.052,27.87,1111122 
DISL,ioos:station:DISL:KATA:1,2014-02-01T10:00:00Z,30.2583,-88.2131,4.0,28.07,1111122 
DISL,ioos:station:DISL:KATA:1,2014-02-01T10:30:00Z,30.2583,-88.2131,3.947,28.04,1111122 
DISL,ioos:station:DISL:KATA:1,2014-02-01T11:00:00Z,30.2583,-88.2131,3.89,27.07,1111122 
DISL,ioos:station:DISL:KATA:1,2014-02-01T11:30:00Z,30.2583,-88.2131,3.844,27.25,1111122 
DISL,ioos:station:DISL:KATA:1,2014-02-01T12:00:00Z,30.2583,-88.2131,3.808,27.72,1111122 
DISL,ioos:station:DISL:KATA:1,2014-02-01T12:30:00Z,30.2583,-88.2131,3.792,27.76,1111122 
DISL,ioos:station:DISL:KATA:1,2014-02-01T13:00:00Z,30.2583,-88.2131,3.789,27.68,1111122 
DISL,ioos:station:DISL:KATA:1,2014-02-01T13:30:00Z,30.2583,-88.2131,3.802,27.67,1111122 
DISL,ioos:station:DISL:KATA:1,2014-02-01T14:00:00Z,30.2583,-88.2131,3.813,27.71,1111122 
DISL,ioos:station:DISL:KATA:1,2014-02-01T14:30:00Z,30.2583,-88.2131,3.834,27.81,1111122 
DISL,ioos:station:DISL:KATA:1,2014-02-01T15:00:00Z,30.2583,-88.2131,3.847,27.98,1111122 
DISL,ioos:station:DISL:KATA:1,2014-02-01T15:30:00Z,30.2583,-88.2131,3.859,28.12,1111122 
DISL,ioos:station:DISL:KATA:1,2014-02-01T16:00:00Z,30.2583,-88.2131,3.873,28.21,1111122 
DISL,ioos:station:DISL:KATA:1,2014-02-01T16:30:00Z,30.2583,-88.2131,3.88,28.26,1111122 
DISL,ioos:station:DISL:KATA:1,2014-02-01T17:00:00Z,30.2583,-88.2131,3.892,28.31,1111122 
DISL,ioos:station:DISL:KATA:1,2014-02-01T17:30:00Z,30.2583,-88.2131,3.912,28.33,1111122 
DISL,ioos:station:DISL:KATA:1,2014-02-01T18:00:00Z,30.2583,-88.2131,3.916,28.31,1111122 
DISL,ioos:station:DISL:KATA:1,2014-02-01T18:30:00Z,30.2583,-88.2131,3.927,28.28,1111122 
DISL,ioos:station:DISL:KATA:1,2014-02-01T19:00:00Z,30.2583,-88.2131,3.946,28.23,1111122 
DISL,ioos:station:DISL:KATA:1,2014-02-01T19:30:00Z,30.2583,-88.2131,3.962,28.19,1111122 
DISL,ioos:station:DISL:KATA:1,2014-02-01T20:00:00Z,30.2583,-88.2131,3.975,28.16,1111122 
DISL,ioos:station:DISL:KATA:1,2014-02-01T20:30:00Z,30.2583,-88.2131,3.989,28.14,1111122 
DISL,ioos:station:DISL:KATA:1,2014-02-01T21:00:00Z,30.2583,-88.2131,4.0,28.08,1111122 
DISL,ioos:station:DISL:KATA:1,2014-02-01T21:30:00Z,30.2583,-88.2131,4.008,28.02,1111122 
DISL,ioos:station:DISL:KATA:1,2014-02-01T22:00:00Z,30.2583,-88.2131,4.01,27.97,1111122 
DISL,ioos:station:DISL:KATA:1,2014-02-01T22:30:00Z,30.2583,-88.2131,4.01,27.94,1111122 
DISL,ioos:station:DISL:KATA:1,2014-02-01T23:00:00Z,30.2583,-88.2131,4.007,27.9,1111122 
DISL,ioos:station:DISL:KATA:1,2014-02-01T23:30:00Z,30.2583,-88.2131,4.018,27.86,1111122 
DISL,ioos:station:DISL:KATA:1,2014-02-02T00:00:00Z,30.2583,-88.2131,4.034,27.82,1111122 
DISL,ioos:station:DISL:KATA:1,2014-02-02T00:30:00Z,30.2583,-88.2131,4.057,27.78,1111122 
DISL,ioos:station:DISL:KATA:1,2014-02-02T01:00:00Z,30.2583,-88.2131,4.085,27.76,1111122 
DISL,ioos:station:DISL:KATA:1,2014-02-02T01:30:00Z,30.2583,-88.2131,4.113,27.75,1111122 
DISL,ioos:station:DISL:KATA:1,2014-02-02T02:00:00Z,30.2583,-88.2131,4.143,27.77,1111122 
DISL,ioos:station:DISL:KATA:1,2014-02-02T02:30:00Z,30.2583,-88.2131,4.178,27.77,1111122 
DISL,ioos:station:DISL:KATA:1,2014-02-02T03:00:00Z,30.2583,-88.2131,4.21,27.75,1111122 
DISL,ioos:station:DISL:KATA:1,2014-02-02T03:30:00Z,30.2583,-88.2131,4.221,27.75,1111122 
DISL,ioos:station:DISL:KATA:1,2014-02-02T04:00:00Z,30.2583,-88.2131,4.233,27.72,1111122 
DISL,ioos:station:DISL:KATA:1,2014-02-02T04:30:00Z,30.2583,-88.2131,4.238,27.67,1111122 
DISL,ioos:station:DISL:KATA:1,2014-02-02T05:00:00Z,30.2583,-88.2131,4.241,27.63,1111122 
DISL,ioos:station:DISL:KATA:1,2014-02-02T05:30:00Z,30.2583,-88.2131,4.241,27.6,1111122 
DISL,ioos:station:DISL:KATA:1,2014-02-02T06:00:00Z,30.2583,-88.2131,4.235,27.56,1111122 
DISL,ioos:station:DISL:KATA:1,2014-02-02T06:30:00Z,30.2583,-88.2131,4.226,27.55,1111122 
DISL,ioos:station:DISL:KATA:1,2014-02-02T07:00:00Z,30.2583,-88.2131,4.234,27.52,1111122 
DISL,ioos:station:DISL:KATA:1,2014-02-02T07:30:00Z,30.2583,-88.2131,4.241,27.52,1111122 
DISL,ioos:station:DISL:KATA:1,2014-02-02T08:00:00Z,30.2583,-88.2131,4.235,27.52,1111122 
DISL,ioos:station:DISL:KATA:1,2014-02-02T08:30:00Z,30.2583,-88.2131,4.215,27.51,1111122 
DISL,ioos:station:DISL:KATA:1,2014-02-02T09:00:00Z,30.2583,-88.2131,4.183,27.51,1111122 
DISL,ioos:station:DISL:KATA:1,2014-02-02T09:30:00Z,30.2583,-88.2131,4.142,27.51,1111122 
DISL,ioos:station:DISL:KATA:1,2014-02-02T10:00:00Z,30.2583,-88.2131,4.101,27.5,1111122 
DISL,ioos:station:DISL:KATA:1,2014-02-02T10:30:00Z,30.2583,-88.2131,4.056,27.49,1111122 
DISL,ioos:station:DISL:KATA:1,2014-02-02T11:00:00Z,30.2583,-88.2131,4.01,27.48,1111122 
DISL,ioos:station:DISL:KATA:1,2014-02-02T11:30:00Z,30.2583,-88.2131,3.967,27.5,1111122 
DISL,ioos:station:DISL:KATA:1,2014-02-02T12:00:00Z,30.2583,-88.2131,3.932,27.5,1111122 
DISL,ioos:station:DISL:KATA:1,2014-02-02T12:30:00Z,30.2583,-88.2131,3.905,27.49,1111122 
DISL,ioos:station:DISL:KATA:1,2014-02-02T13:00:00Z,30.2583,-88.2131,3.892,27.47,1111122 
DISL,ioos:station:DISL:KATA:1,2014-02-02T13:30:00Z,30.2583,-88.2131,3.892,27.43,1111122 
DISL,ioos:station:DISL:KATA:1,2014-02-02T14:00:00Z,30.2583,-88.2131,3.9,27.44,1111122 
DISL,ioos:station:DISL:KATA:1,2014-02-02T14:30:00Z,30.2583,-88.2131,3.911,27.47,1111122 
DISL,ioos:station:DISL:KATA:1,2014-02-02T15:00:00Z,30.2583,-88.2131,3.946,27.46,1111122 
DISL,ioos:station:DISL:KATA:1,2014-02-02T15:30:00Z,30.2583,-88.2131,3.97,27.43,1111122 
DISL,ioos:station:DISL:KATA:1,2014-02-02T16:00:00Z,30.2583,-88.2131,3.997,27.41,1111122 
DISL,ioos:station:DISL:KATA:1,2014-02-02T16:30:00Z,30.2583,-88.2131,4.013,27.39,1111122 
DISL,ioos:station:DISL:KATA:1,2014-02-02T17:00:00Z,30.2583,-88.2131,4.019,27.37,1111122 
DISL,ioos:station:DISL:KATA:1,2014-02-02T17:30:00Z,30.2583,-88.2131,4.03,27.33,1111122 
DISL,ioos:station:DISL:KATA:1,2014-02-02T18:00:00Z,30.2583,-88.2131,4.031,27.31,1111122 
DISL,ioos:station:DISL:KATA:1,2014-02-02T18:30:00Z,30.2583,-88.2131,4.044,27.42,1111122 
DISL,ioos:station:DISL:KATA:1,2014-02-02T19:00:00Z,30.2583,-88.2131,4.054,27.47,1111122 
DISL,ioos:station:DISL:KATA:1,2014-02-02T19:30:00Z,30.2583,-88.2131,4.07,27.51,1111122 
DISL,ioos:station:DISL:KATA:1,2014-02-02T20:00:00Z,30.2583,-88.2131,4.093,27.48,1111122 
DISL,ioos:station:DISL:KATA:1,2014-02-02T20:30:00Z,30.2583,-88.2131,4.107,27.43,1111122 
DISL,ioos:station:DISL:KATA:1,2014-02-02T21:00:00Z,30.2583,-88.2131,4.116,27.39,1111122 
DISL,ioos:station:DISL:KATA:1,2014-02-02T21:30:00Z,30.2583,-88.2131,4.117,27.35,1111122 
DISL,ioos:station:DISL:KATA:1,2014-02-02T22:00:00Z,30.2583,-88.2131,4.128,27.35,1111122 
DISL,ioos:station:DISL:KATA:1,2014-02-02T22:30:00Z,30.2583,-88.2131,4.126,27.35,1111122 
DISL,ioos:station:DISL:KATA:1,2014-02-02T23:00:00Z,30.2583,-88.2131,4.121,27.32,1111122 
DISL,ioos:station:DISL:KATA:1,2014-02-02T23:30:00Z,30.2583,-88.2131,4.117,27.51,1111122 
DISL,ioos:station:DISL:KATA:1,2014-02-03T00:00:00Z,30.2583,-88.2131,4.099,27.62,1111122 
DISL,ioos:station:DISL:KATA:1,2014-02-03T00:30:00Z,30.2583,-88.2131,4.088,27.62,1111122 
DISL,ioos:station:DISL:KATA:1,2014-02-03T01:00:00Z,30.2583,-88.2131,4.086,27.65,1111122 
DISL,ioos:station:DISL:KATA:1,2014-02-03T01:30:00Z,30.2583,-88.2131,4.1,27.65,1111122 
DISL,ioos:station:DISL:KATA:1,2014-02-03T02:00:00Z,30.2583,-88.2131,4.13,27.65,1111122 
DISL,ioos:station:DISL:KATA:1,2014-02-03T02:30:00Z,30.2583,-88.2131,4.167,27.66,1111122 
DISL,ioos:station:DISL:KATA:1,2014-02-03T03:00:00Z,30.2583,-88.2131,4.2,27.59,1111122 
DISL,ioos:station:DISL:KATA:1,2014-02-03T03:30:00Z,30.2583,-88.2131,4.233,27.54,1111122 
DISL,ioos:station:DISL:KATA:1,2014-02-03T04:00:00Z,30.2583,-88.2131,4.253,27.58,1111122 
DISL,ioos:station:DISL:KATA:1,2014-02-03T04:30:00Z,30.2583,-88.2131,4.27,27.76,1111122 
DISL,ioos:station:DISL:KATA:1,2014-02-03T05:00:00Z,30.2583,-88.2131,4.27,27.89,1111122 
DISL,ioos:station:DISL:KATA:1,2014-02-03T05:30:00Z,30.2583,-88.2131,4.259,27.91,1111122 
DISL,ioos:station:DISL:KATA:1,2014-02-03T06:00:00Z,30.2583,-88.2131,4.236,27.88,1111122 
DISL,ioos:station:DISL:KATA:1,2014-02-03T06:30:00Z,30.2583,-88.2131,4.212,27.84,1111122 
DISL,ioos:station:DISL:KATA:1,2014-02-03T07:00:00Z,30.2583,-88.2131,4.2,27.89,1111122 
DISL,ioos:station:DISL:KATA:1,2014-02-03T07:30:00Z,30.2583,-88.2131,4.196,27.85,1111122 
DISL,ioos:station:DISL:KATA:1,2014-02-03T08:00:00Z,30.2583,-88.2131,4.201,27.91,1111122 
DISL,ioos:station:DISL:KATA:1,2014-02-03T08:30:00Z,30.2583,-88.2131,4.204,27.92,1111122 
DISL,ioos:station:DISL:KATA:1,2014-02-03T09:00:00Z,30.2583,-88.2131,4.22,27.89,1111122 
DISL,ioos:station:DISL:KATA:1,2014-02-03T09:30:00Z,30.2583,-88.2131,4.211,27.91,1111122 
DISL,ioos:station:DISL:KATA:1,2014-02-03T10:00:00Z,30.2583,-88.2131,4.205,27.92,1111122 
DISL,ioos:station:DISL:KATA:1,2014-02-03T10:30:00Z,30.2583,-88.2131,4.183,27.93,1111122 
DISL,ioos:station:DISL:KATA:1,2014-02-03T11:00:00Z,30.2583,-88.2131,4.142,27.9,1111122 
DISL,ioos:station:DISL:KATA:1,2014-02-03T11:30:00Z,30.2583,-88.2131,4.097,27.88,1111122 
DISL,ioos:station:DISL:KATA:1,2014-02-03T12:00:00Z,30.2583,-88.2131,4.06,27.78,1111122 
DISL,ioos:station:DISL:KATA:1,2014-02-03T12:30:00Z,30.2583,-88.2131,4.021,27.72,1111122 
DISL,ioos:station:DISL:KATA:1,2014-02-03T13:00:00Z,30.2583,-88.2131,3.986,27.63,1111122 
DISL,ioos:station:DISL:KATA:1,2014-02-03T13:30:00Z,30.2583,-88.2131,3.977,27.46,1111122 
DISL,ioos:station:DISL:KATA:1,2014-02-03T14:00:00Z,30.2583,-88.2131,3.948,27.34,1111122 
DISL,ioos:station:DISL:KATA:1,2014-02-03T14:30:00Z,30.2583,-88.2131,3.933,27.3,1111122 
DISL,ioos:station:DISL:KATA:1,2014-02-03T15:00:00Z,30.2583,-88.2131,3.93,27.23,1111122 
DISL,ioos:station:DISL:KATA:1,2014-02-03T15:30:00Z,30.2583,-88.2131,3.917,27.22,1111122 
DISL,ioos:station:DISL:KATA:1,2014-02-03T16:00:00Z,30.2583,-88.2131,3.891,26.95,1111122 
DISL,ioos:station:DISL:KATA:1,2014-02-03T16:30:00Z,30.2583,-88.2131,3.902,27.01,1111122 
DISL,ioos:station:DISL:KATA:1,2014-02-03T17:00:00Z,30.2583,-88.2131,3.911,27.07,1111122 
DISL,ioos:station:DISL:KATA:1,2014-02-03T17:30:00Z,30.2583,-88.2131,3.933,27.13,1111122 
DISL,ioos:station:DISL:KATA:1,2014-02-03T18:00:00Z,30.2583,-88.2131,3.97,27.19,1111122 
DISL,ioos:station:DISL:KATA:1,2014-02-03T18:30:00Z,30.2583,-88.2131,3.993,27.18,1111122 
DISL,ioos:station:DISL:KATA:1,2014-02-03T19:00:00Z,30.2583,-88.2131,4.003,27.23,1111122 
DISL,ioos:station:DISL:KATA:1,2014-02-03T19:30:00Z,30.2583,-88.2131,4.02,27.17,1111122 
DISL,ioos:station:DISL:KATA:1,2014-02-03T20:00:00Z,30.2583,-88.2131,4.03,27.21,1111122 
DISL,ioos:station:DISL:KATA:1,2014-02-03T20:30:00Z,30.2583,-88.2131,4.041,27.29,1111122 
DISL,ioos:station:DISL:KATA:1,2014-02-03T21:00:00Z,30.2583,-88.2131,4.053,27.32,1111122 
DISL,ioos:station:DISL:KATA:1,2014-02-03T21:30:00Z,30.2583,-88.2131,4.048,27.32,1111122 
DISL,ioos:station:DISL:KATA:1,2014-02-03T22:00:00Z,30.2583,-88.2131,4.034,27.34,1111122 
DISL,ioos:station:DISL:KATA:1,2014-02-03T22:30:00Z,30.2583,-88.2131,4.012,27.11,1111122 
DISL,ioos:station:DISL:KATA:1,2014-02-03T23:00:00Z,30.2583,-88.2131,3.984,27.26,1111122 
DISL,ioos:station:DISL:KATA:1,2014-02-03T23:30:00Z,30.2583,-88.2131,3.952,27.35,1111122 
DISL,ioos:station:DISL:KATA:1,2014-02-04T00:00:00Z,30.2583,-88.2131,3.937,27.28,1111122 
DISL,ioos:station:DISL:KATA:1,2014-02-04T00:30:00Z,30.2583,-88.2131,3.92,27.21,1111122 
DISL,ioos:station:DISL:KATA:1,2014-02-04T01:00:00Z,30.2583,-88.2131,3.904,27.23,1111122 
DISL,ioos:station:DISL:KATA:1,2014-02-04T01:30:00Z,30.2583,-88.2131,3.899,27.22,1111122 
DISL,ioos:station:DISL:KATA:1,2014-02-04T02:00:00Z,30.2583,-88.2131,3.913,27.24,1111122 
DISL,ioos:station:DISL:KATA:1,2014-02-04T02:30:00Z,30.2583,-88.2131,3.916,27.22,1111122 
DISL,ioos:station:DISL:KATA:1,2014-02-04T03:00:00Z,30.2583,-88.2131,3.93,27.18,1111122 
DISL,ioos:station:DISL:KATA:1,2014-02-04T03:30:00Z,30.2583,-88.2131,3.951,27.29,1111122 
DISL,ioos:station:DISL:KATA:1,2014-02-04T04:00:00Z,30.2583,-88.2131,3.975,27.37,1111122 
DISL,ioos:station:DISL:KATA:1,2014-02-04T04:30:00Z,30.2583,-88.2131,3.996,27.34,1111122 
DISL,ioos:station:DISL:KATA:1,2014-02-04T05:00:00Z,30.2583,-88.2131,4.014,27.33,1111122 
DISL,ioos:station:DISL:KATA:1,2014-02-04T05:30:00Z,30.2583,-88.2131,4.011,27.24,1111122 
DISL,ioos:station:DISL:KATA:1,2014-02-04T06:00:00Z,30.2583,-88.2131,4.008,27.16,1111122 
DISL,ioos:station:DISL:KATA:1,2014-02-04T06:30:00Z,30.2583,-88.2131,4.006,27.1,1111122 
DISL,ioos:station:DISL:KATA:1,2014-02-04T07:00:00Z,30.2583,-88.2131,4.014,26.94,1111122 
DISL,ioos:station:DISL:KATA:1,2014-02-04T07:30:00Z,30.2583,-88.2131,4.026,26.94,1111122 
DISL,ioos:station:DISL:KATA:1,2014-02-04T08:00:00Z,30.2583,-88.2131,4.048,27.05,1111122 
DISL,ioos:station:DISL:KATA:1,2014-02-04T08:30:00Z,30.2583,-88.2131,4.058,27.09,1111122 
DISL,ioos:station:DISL:KATA:1,2014-02-04T09:00:00Z,30.2583,-88.2131,4.063,26.94,1111122 
DISL,ioos:station:DISL:KATA:1,2014-02-04T09:30:00Z,30.2583,-88.2131,4.075,26.84,1111122 
DISL,ioos:station:DISL:KATA:1,2014-02-04T10:00:00Z,30.2583,-88.2131,4.095,26.72,1111122 
DISL,ioos:station:DISL:KATA:1,2014-02-04T10:30:00Z,30.2583,-88.2131,4.098,26.42,1111122 
DISL,ioos:station:DISL:KATA:1,2014-02-04T11:00:00Z,30.2583,-88.2131,4.089,26.73,1111122 
DISL,ioos:station:DISL:KATA:1,2014-02-04T11:30:00Z,30.2583,-88.2131,4.08,26.85,1111122 
DISL,ioos:station:DISL:KATA:1,2014-02-04T12:00:00Z,30.2583,-88.2131,4.072,26.75,1111122 
DISL,ioos:station:DISL:KATA:1,2014-02-04T12:30:00Z,30.2583,-88.2131,4.07,26.36,1111122 
DISL,ioos:station:DISL:KATA:1,2014-02-04T13:00:00Z,30.2583,-88.2131,4.078,26.25,1111122 
DISL,ioos:station:DISL:KATA:1,2014-02-04T13:30:00Z,30.2583,-88.2131,4.09,26.2,1111122 
DISL,ioos:station:DISL:KATA:1,2014-02-04T14:00:00Z,30.2583,-88.2131,4.111,26.37,1111122 
DISL,ioos:station:DISL:KATA:1,2014-02-04T14:30:00Z,30.2583,-88.2131,4.131,26.55,1111122 
DISL,ioos:station:DISL:KATA:1,2014-02-04T15:00:00Z,30.2583,-88.2131,4.147,25.69,1111122 
DISL,ioos:station:DISL:KATA:1,2014-02-04T15:30:00Z,30.2583,-88.2131,4.172,25.63,1111122 
DISL,ioos:station:DISL:KATA:1,2014-02-04T16:00:00Z,30.2583,-88.2131,4.193,25.26,1111122 
DISL,ioos:station:DISL:KATA:1,2014-02-04T16:30:00Z,30.2583,-88.2131,4.22,25.65,1111122 
DISL,ioos:station:DISL:KATA:1,2014-02-04T17:00:00Z,30.2583,-88.2131,4.24,25.47,1111122 
DISL,ioos:station:DISL:KATA:1,2014-02-04T17:30:00Z,30.2583,-88.2131,4.247,25.81,1111122 
DISL,ioos:station:DISL:KATA:1,2014-02-04T18:00:00Z,30.2583,-88.2131,4.246,25.75,1111122 
DISL,ioos:station:DISL:KATA:1,2014-02-04T18:30:00Z,30.2583,-88.2131,4.239,25.76,1111122 
DISL,ioos:station:DISL:KATA:1,2014-02-04T19:00:00Z,30.2583,-88.2131,4.231,25.67,1111122 
DISL,ioos:station:DISL:KATA:1,2014-02-04T19:30:00Z,30.2583,-88.2131,4.231,25.88,1111122 
DISL,ioos:station:DISL:KATA:1,2014-02-04T20:00:00Z,30.2583,-88.2131,4.219,25.95,1111122 
DISL,ioos:station:DISL:KATA:1,2014-02-04T20:30:00Z,30.2583,-88.2131,4.217,26.1,1111122 
DISL,ioos:station:DISL:KATA:1,2014-02-04T21:00:00Z,30.2583,-88.2131,4.226,26.13,1111122 
DISL,ioos:station:DISL:KATA:1,2014-02-04T21:30:00Z,30.2583,-88.2131,4.248,28.66,1111122 
DISL,ioos:station:DISL:KATA:1,2014-02-04T22:00:00Z,30.2583,-88.2131,4.258,28.77,1111122 
DISL,ioos:station:DISL:KATA:1,2014-02-04T22:30:00Z,30.2583,-88.2131,4.25,28.63,1111122 
DISL,ioos:station:DISL:KATA:1,2014-02-04T23:00:00Z,30.2583,-88.2131,4.235,28.48,1111122 
DISL,ioos:station:DISL:KATA:1,2014-02-04T23:30:00Z,30.2583,-88.2131,4.206,28.41,1111122 
DISL,ioos:station:DISL:KATA:1,2014-02-05T00:00:00Z,30.2583,-88.2131,4.184,28.3,1111122 
DISL,ioos:station:DISL:KATA:1,2014-02-05T00:30:00Z,30.2583,-88.2131,4.149,28.21,1111122 
DISL,ioos:station:DISL:KATA:1,2014-02-05T01:00:00Z,30.2583,-88.2131,4.113,28.33,1111122 
DISL,ioos:station:DISL:KATA:1,2014-02-05T01:30:00Z,30.2583,-88.2131,4.078,28.28,1111122 
DISL,ioos:station:DISL:KATA:1,2014-02-05T02:00:00Z,30.2583,-88.2131,4.048,28.65,1111122 
DISL,ioos:station:DISL:KATA:1,2014-02-05T02:30:00Z,30.2583,-88.2131,4.029,28.37,1111122 
DISL,ioos:station:DISL:KATA:1,2014-02-05T03:00:00Z,30.2583,-88.2131,4.022,28.33,1111122 
DISL,ioos:station:DISL:KATA:1,2014-02-05T03:30:00Z,30.2583,-88.2131,4.04,28.37,1111122 
DISL,ioos:station:DISL:KATA:1,2014-02-05T04:00:00Z,30.2583,-88.2131,4.036,28.37,1111122 
DISL,ioos:station:DISL:KATA:1,2014-02-05T04:30:00Z,30.2583,-88.2131,4.07,28.37,1111122 
DISL,ioos:station:DISL:KATA:1,2014-02-05T05:00:00Z,30.2583,-88.2131,4.1,28.52,1111122 
DISL,ioos:station:DISL:KATA:1,2014-02-05T05:30:00Z,30.2583,-88.2131,4.103,28.72,1111122 
DISL,ioos:station:DISL:KATA:1,2014-02-05T06:00:00Z,30.2583,-88.2131,4.109,28.69,1111122 
DISL,ioos:station:DISL:KATA:1,2014-02-05T06:30:00Z,30.2583,-88.2131,4.084,28.73,1111122 
DISL,ioos:station:DISL:KATA:1,2014-02-05T07:00:00Z,30.2583,-88.2131,4.107,28.77,1111122 
DISL,ioos:station:DISL:KATA:1,2014-02-05T07:30:00Z,30.2583,-88.2131,4.087,28.66,1111122 
DISL,ioos:station:DISL:KATA:1,2014-02-05T08:00:00Z,30.2583,-88.2131,4.045,28.67,1111122 
DISL,ioos:station:DISL:KATA:1,2014-02-05T08:30:00Z,30.2583,-88.2131,4.013,28.72,1111122 
DISL,ioos:station:DISL:KATA:1,2014-02-05T09:00:00Z,30.2583,-88.2131,3.97,28.92,1111122 
DISL,ioos:station:DISL:KATA:1,2014-02-05T09:30:00Z,30.2583,-88.2131,3.967,28.91,1111122 
DISL,ioos:station:DISL:KATA:1,2014-02-05T10:00:00Z,30.2583,-88.2131,3.975,28.82,1111122 
DISL,ioos:station:DISL:KATA:1,2014-02-05T10:30:00Z,30.2583,-88.2131,3.98,28.63,1111122 
DISL,ioos:station:DISL:KATA:1,2014-02-05T11:00:00Z,30.2583,-88.2131,3.999,28.59,1111122 
DISL,ioos:station:DISL:KATA:1,2014-02-05T11:30:00Z,30.2583,-88.2131,4.005,28.55,1111122 
DISL,ioos:station:DISL:KATA:1,2014-02-05T12:00:00Z,30.2583,-88.2131,3.994,28.55,1111122 
DISL,ioos:station:DISL:KATA:1,2014-02-05T12:30:00Z,30.2583,-88.2131,3.981,28.47,1111122 
DISL,ioos:station:DISL:KATA:1,2014-02-05T13:00:00Z,30.2583,-88.2131,3.946,28.45,1111122 
DISL,ioos:station:DISL:KATA:1,2014-02-05T13:30:00Z,30.2583,-88.2131,3.939,28.37,1111122 
DISL,ioos:station:DISL:KATA:1,2014-02-05T14:00:00Z,30.2583,-88.2131,3.943,28.3,1111122 
DISL,ioos:station:DISL:KATA:1,2014-02-05T14:30:00Z,30.2583,-88.2131,3.942,28.18,1111122 
DISL,ioos:station:DISL:KATA:1,2014-02-05T15:00:00Z,30.2583,-88.2131,3.954,27.76,1111122 
DISL,ioos:station:DISL:KATA:1,2014-02-05T15:30:00Z,30.2583,-88.2131,3.977,27.5,1111122 
DISL,ioos:station:DISL:KATA:1,2014-02-05T16:00:00Z,30.2583,-88.2131,4.1,0.1,1111122 
DISL,ioos:station:DISL:KATA:1,2014-02-05T16:30:00Z,30.2583,-88.2131,4.041,27.53,1111122 
DISL,ioos:station:DISL:KATA:1,2014-02-05T17:00:00Z,30.2583,-88.2131,4.188,0.09,1111122 
DISL,ioos:station:DISL:KATA:1,2014-02-05T17:30:00Z,30.2583,-88.2131,4.135,25.49,1111122 
DISL,ioos:station:DISL:KATA:1,2014-02-05T18:00:00Z,30.2583,-88.2131,4.141,24.63,1111122 
DISL,ioos:station:DISL:KATA:1,2014-02-05T18:30:00Z,30.2583,-88.2131,4.148,24.69,1111122 
DISL,ioos:station:DISL:KATA:1,2014-02-05T19:00:00Z,30.2583,-88.2131,4.141,25.65,1111122 
DISL,ioos:station:DISL:KATA:1,2014-02-05T19:30:00Z,30.2583,-88.2131,4.156,26.26,1111122 
DISL,ioos:station:DISL:KATA:1,2014-02-05T20:00:00Z,30.2583,-88.2131,4.171,25.6,1111122 
DISL,ioos:station:DISL:KATA:1,2014-02-05T20:30:00Z,30.2583,-88.2131,4.16,27.12,1111122 
DISL,ioos:station:DISL:KATA:1,2014-02-05T21:00:00Z,30.2583,-88.2131,4.156,25.58,1111122 
DISL,ioos:station:DISL:KATA:1,2014-02-05T21:30:00Z,30.2583,-88.2131,4.144,25.43,1111122 
DISL,ioos:station:DISL:KATA:1,2014-02-05T22:00:00Z,30.2583,-88.2131,4.131,24.99,1111122 
DISL,ioos:station:DISL:KATA:1,2014-02-05T22:30:00Z,30.2583,-88.2131,4.143,26.68,1111122 
DISL,ioos:station:DISL:KATA:1,2014-02-05T23:00:00Z,30.2583,-88.2131,4.133,26.96,1111122 
DISL,ioos:station:DISL:KATA:1,2014-02-05T23:30:00Z,30.2583,-88.2131,4.122,26.91,1111122 
DISL,ioos:station:DISL:KATA:1,2014-02-06T00:00:00Z,30.2583,-88.2131,4.102,26.08,1111122 
DISL,ioos:station:DISL:KATA:1,2014-02-06T00:30:00Z,30.2583,-88.2131,4.14,0.0,1114422 
DISL,ioos:station:DISL:KATA:1,2014-02-06T01:00:00Z,30.2583,-88.2131,4.009,22.08,1111122 
DISL,ioos:station:DISL:KATA:1,2014-02-06T01:30:00Z,30.2583,-88.2131,3.968,21.76,1111122 
DISL,ioos:station:DISL:KATA:1,2014-02-06T02:00:00Z,30.2583,-88.2131,4.008,0.01,1111122 
DISL,ioos:station:DISL:KATA:1,2014-02-06T02:30:00Z,30.2583,-88.2131,3.874,21.28,1111122 
DISL,ioos:station:DISL:KATA:1,2014-02-06T03:00:00Z,30.2583,-88.2131,3.826,20.88,1111122 
DISL,ioos:station:DISL:KATA:1,2014-02-06T03:30:00Z,30.2583,-88.2131,3.785,20.45,1111122 
DISL,ioos:station:DISL:KATA:1,2014-02-06T04:00:00Z,30.2583,-88.2131,3.788,20.18,1111122 
DISL,ioos:station:DISL:KATA:1,2014-02-06T04:30:00Z,30.2583,-88.2131,3.788,19.97,1111122 
DISL,ioos:station:DISL:KATA:1,2014-02-06T05:00:00Z,30.2583,-88.2131,3.797,19.77,1111122 
DISL,ioos:station:DISL:KATA:1,2014-02-06T05:30:00Z,30.2583,-88.2131,3.817,19.91,1111122 
DISL,ioos:station:DISL:KATA:1,2014-02-06T06:00:00Z,30.2583,-88.2131,3.856,20.37,1111122 
DISL,ioos:station:DISL:KATA:1,2014-02-06T06:30:00Z,30.2583,-88.2131,3.852,20.22,1111122 
DISL,ioos:station:DISL:KATA:1,2014-02-06T07:00:00Z,30.2583,-88.2131,3.861,20.0,1111122 
DISL,ioos:station:DISL:KATA:1,2014-02-06T07:30:00Z,30.2583,-88.2131,3.841,19.73,1111122 
DISL,ioos:station:DISL:KATA:1,2014-02-06T08:00:00Z,30.2583,-88.2131,3.822,19.43,1111122 
DISL,ioos:station:DISL:KATA:1,2014-02-06T08:30:00Z,30.2583,-88.2131,3.824,19.37,1111122 
DISL,ioos:station:DISL:KATA:1,2014-02-06T09:00:00Z,30.2583,-88.2131,3.787,19.61,1111122 
DISL,ioos:station:DISL:KATA:1,2014-02-06T09:30:00Z,30.2583,-88.2131,3.774,19.75,1111122 
DISL,ioos:station:DISL:KATA:1,2014-02-06T10:00:00Z,30.2583,-88.2131,3.767,19.73,1111122 
DISL,ioos:station:DISL:KATA:1,2014-02-06T10:30:00Z,30.2583,-88.2131,3.773,19.78,1111122 
DISL,ioos:station:DISL:KATA:1,2014-02-06T11:00:00Z,30.2583,-88.2131,3.854,0.1,1111122 
DISL,ioos:station:DISL:KATA:1,2014-02-06T11:30:00Z,30.2583,-88.2131,3.813,19.63,1111122 
DISL,ioos:station:DISL:KATA:1,2014-02-06T12:00:00Z,30.2583,-88.2131,3.836,19.55,1111122 
DISL,ioos:station:DISL:KATA:1,2014-02-06T12:30:00Z,30.2583,-88.2131,3.854,19.66,1111122 
DISL,ioos:station:DISL:KATA:1,2014-02-06T13:00:00Z,30.2583,-88.2131,3.875,19.79,1111122 
DISL,ioos:station:DISL:KATA:1,2014-02-06T13:30:00Z,30.2583,-88.2131,3.89,19.79,1111122 
DISL,ioos:station:DISL:KATA:1,2014-02-06T14:00:00Z,30.2583,-88.2131,3.89,19.39,1111122 